TimeEST,TemperatureF,Dew PointF,Humidity,Sea Level PressureIn,VisibilityMPH,Wind Direction,Wind SpeedMPH,Gust SpeedMPH,PrecipitationIn,Events,Conditions,WindDirDegrees,DateUTC
12:15 AM,41.0,40.1,97,29.69,10.0,WSW,8.1,18.4,N/A,,Overcast,250,2013-11-27 05:15:00
12:35 AM,40.1,37.9,92,29.70,10.0,West,4.6,17.3,N/A,,Overcast,280,2013-11-27 05:35:00
12:55 AM,39.6,37.6,93,29.69,10.0,West,6.9,-,N/A,Rain,Light Rain,260,2013-11-27 05:55:00
1:15 AM,38.7,37.9,97,29.70,10.0,WSW,9.2,-,N/A,Rain,Light Rain,240,2013-11-27 06:15:00
1:35 AM,38.3,36.3,93,29.69,7.0,West,10.4,-,0.02,Rain,Rain,260,2013-11-27 06:35:00
1:55 AM,37.6,35.6,93,29.69,10.0,West,10.4,-,0.03,Rain,Light Rain,280,2013-11-27 06:55:00
2:15 AM,36.9,33.1,86,29.71,10.0,West,12.7,21.9,N/A,Rain,Light Rain,270,2013-11-27 07:15:00
2:35 AM,36.1,32.9,88,29.70,7.0,West,8.1,18.4,N/A,Rain,Light Rain,270,2013-11-27 07:35:00
2:55 AM,35.8,32.9,89,29.69,7.0,Calm,Calm,-,0.01,Rain,Rain,0,2013-11-27 07:55:00
3:15 AM,35.2,32.0,88,29.69,10.0,Calm,Calm,-,N/A,,Light Drizzle,0,2013-11-27 08:15:00
3:35 AM,34.7,32.0,90,29.69,10.0,Calm,Calm,-,N/A,,Overcast,0,2013-11-27 08:35:00
3:55 AM,34.7,31.1,87,29.70,10.0,Calm,Calm,-,N/A,,Overcast,0,2013-11-27 08:55:00
4:15 AM,34.0,30.7,88,29.69,7.0,Calm,Calm,-,N/A,Snow,Light Snow,0,2013-11-27 09:15:00
4:35 AM,33.8,30.7,89,29.69,5.0,Calm,Calm,-,N/A,Snow,Light Snow,0,2013-11-27 09:35:00
4:55 AM,33.3,29.3,85,29.70,10.0,Calm,Calm,-,N/A,Snow,Light Snow,0,2013-11-27 09:55:00
5:15 AM,33.1,28.0,82,29.70,10.0,Calm,Calm,-,N/A,,Overcast,0,2013-11-27 10:15:00
5:35 AM,32.9,28.2,83,29.70,10.0,Calm,Calm,-,N/A,,Overcast,0,2013-11-27 10:35:00
5:55 AM,32.4,28.2,85,29.72,10.0,Calm,Calm,-,N/A,,Overcast,0,2013-11-27 10:55:00
6:15 AM,32.0,27.3,83,29.72,5.0,Calm,Calm,-,N/A,Snow,Light Snow,0,2013-11-27 11:15:00
6:35 AM,32.0,27.9,85,29.72,4.0,Calm,Calm,-,N/A,Snow,Light Snow,0,2013-11-27 11:35:00
6:55 AM,31.5,27.1,84,29.73,2.5,Calm,Calm,-,N/A,Snow,Light Snow,0,2013-11-27 11:55:00
7:15 AM,31.3,27.9,87,29.73,4.0,Calm,Calm,-,N/A,Snow,Light Snow,0,2013-11-27 12:15:00
7:35 AM,31.1,26.4,83,29.73,2.5,Calm,Calm,-,N/A,Snow,Light Snow,0,2013-11-27 12:35:00
7:55 AM,31.1,26.2,82,29.74,3.0,Calm,Calm,-,N/A,Snow,Light Snow,0,2013-11-27 12:55:00
8:15 AM,30.9,27.1,86,29.75,1.2,Calm,Calm,-,N/A,Snow,Light Snow,0,2013-11-27 13:15:00
8:35 AM,30.2,27.7,90,29.75,0.2,Calm,Calm,-,N/A,Snow,Snow,0,2013-11-27 13:35:00
8:55 AM,30.2,27.3,89,29.75,0.5,Calm,Calm,-,N/A,Snow,Snow,0,2013-11-27 13:55:00
9:15 AM,29.7,28.2,94,29.75,0.2,Calm,Calm,-,0.01,Snow,Heavy Snow,0,2013-11-27 14:15:00
9:35 AM,30.4,26.4,85,29.75,0.5,Calm,Calm,-,0.02,Snow,Light Snow,0,2013-11-27 14:35:00
9:55 AM,30.7,25.7,82,29.75,1.8,Calm,Calm,-,0.02,Snow,Light Snow,0,2013-11-27 14:55:00
10:15 AM,31.1,24.4,76,29.75,7.0,Calm,Calm,-,N/A,Snow,Light Snow,0,2013-11-27 15:15:00
10:35 AM,30.7,24.8,79,29.75,2.5,Calm,Calm,-,N/A,Snow,Light Snow,0,2013-11-27 15:35:00
10:55 AM,30.4,25.7,83,29.75,3.0,Calm,Calm,-,N/A,,Haze,0,2013-11-27 15:55:00
11:15 AM,30.0,26.1,85,29.75,2.0,Calm,Calm,-,N/A,Snow,Light Snow,0,2013-11-27 16:15:00
11:35 AM,30.0,25.9,85,29.75,3.0,Calm,Calm,-,N/A,Snow,Light Snow,0,2013-11-27 16:35:00
11:55 AM,30.2,25.7,83,29.75,2.0,Calm,Calm,-,N/A,Snow,Light Snow,0,2013-11-27 16:55:00
12:15 PM,30.2,26.8,87,29.75,1.0,Calm,Calm,-,N/A,Snow,Light Snow,0,2013-11-27 17:15:00
12:35 PM,30.2,25.0,81,29.75,1.5,Calm,Calm,-,N/A,Snow,Light Snow,0,2013-11-27 17:35:00
12:55 PM,29.1,25.2,85,29.76,0.8,Calm,Calm,-,N/A,Snow,Light Snow,0,2013-11-27 17:55:00
1:15 PM,28.6,22.1,77,29.77,2.5,Calm,Calm,-,N/A,Snow,Light Snow,0,2013-11-27 18:15:00
1:35 PM,28.2,21.7,77,29.79,3.0,West,13.8,26.5,N/A,Snow,Light Snow,280,2013-11-27 18:35:00
1:55 PM,27.7,20.7,75,29.79,1.8,West,17.3,28.8,N/A,Snow,Light Snow,280,2013-11-27 18:55:00
2:15 PM,27.0,21.2,79,29.80,1.0,West,21.9,32.2,N/A,Snow,Light Snow,280,2013-11-27 19:15:00
2:35 PM,26.6,20.7,78,29.82,0.8,West,19.6,29.9,N/A,Snow,Light Snow,280,2013-11-27 19:35:00
2:55 PM,26.6,19.8,75,29.84,1.0,West,11.5,20.7,N/A,Snow,Light Snow,280,2013-11-27 19:55:00
3:15 PM,26.6,16.3,65,29.86,7.0,West,21.9,27.6,N/A,Snow,Light Snow,280,2013-11-27 20:15:00
3:35 PM,26.2,15.8,65,29.87,2.0,West,19.6,33.4,N/A,Snow,Light Snow,280,2013-11-27 20:35:00
3:55 PM,25.7,17.2,70,29.89,2.5,West,19.6,28.8,N/A,Snow,Light Snow,280,2013-11-27 20:55:00
4:15 PM,26.2,14.9,62,29.89,5.0,West,26.5,34.5,N/A,Snow,Light Snow,280,2013-11-27 21:15:00
4:35 PM,25.7,16.5,68,29.92,3.0,West,21.9,26.5,N/A,Snow,Light Snow,280,2013-11-27 21:35:00
4:55 PM,24.8,17.4,74,29.93,4.0,West,19.6,26.5,N/A,Snow,Light Snow,280,2013-11-27 21:55:00
5:15 PM,24.8,17.4,74,29.94,1.8,West,23.0,36.8,N/A,Snow,Light Snow,280,2013-11-27 22:15:00
5:35 PM,25.2,14.0,63,29.96,5.0,West,18.4,36.8,N/A,,Haze,280,2013-11-27 22:35:00
5:55 PM,25.2,13.5,61,29.97,7.0,West,23.0,41.4,N/A,Snow,Light Snow,280,2013-11-27 22:55:00
6:15 PM,24.8,13.8,63,29.98,7.0,West,23.0,31.1,N/A,Snow,Light Snow,280,2013-11-27 23:15:00
6:35 PM,24.8,12.4,59,30.00,7.0,West,20.7,31.1,N/A,,Overcast,280,2013-11-27 23:35:00
6:55 PM,24.6,14.7,66,30.00,7.0,West,16.1,26.5,N/A,Snow,Light Snow,280,2013-11-27 23:55:00
7:15 PM,24.3,14.9,68,30.02,7.0,West,20.7,27.6,N/A,Snow,Light Snow,280,2013-11-28 00:15:00
7:35 PM,24.4,12.6,61,30.03,10.0,West,16.1,33.4,N/A,,Overcast,280,2013-11-28 00:35:00
7:55 PM,24.1,12.4,61,30.04,3.0,West,15.0,43.7,N/A,Snow,Light Snow,280,2013-11-28 00:55:00
8:15 PM,23.9,12.9,63,30.05,10.0,West,19.6,25.3,N/A,Snow,Light Snow,280,2013-11-28 01:15:00
8:35 PM,23.7,13.3,64,30.07,10.0,West,18.4,34.5,N/A,Snow,Light Snow,280,2013-11-28 01:35:00
8:55 PM,23.7,12.7,63,30.06,5.0,West,21.9,41.4,N/A,Snow,Light Snow,280,2013-11-28 01:55:00
9:15 PM,23.0,14.0,68,30.08,5.0,West,19.6,29.9,N/A,Snow,Light Snow,280,2013-11-28 02:15:00
9:35 PM,23.4,13.8,67,30.09,7.0,West,13.8,25.3,N/A,Snow,Light Snow,280,2013-11-28 02:35:00
9:55 PM,23.4,13.1,65,30.10,7.0,West,16.1,29.9,N/A,Snow,Light Snow,280,2013-11-28 02:55:00
10:15 PM,23.5,13.5,65,30.11,10.0,West,16.1,32.2,N/A,,Overcast,280,2013-11-28 03:15:00
10:35 PM,23.0,11.8,62,30.12,10.0,West,16.1,25.3,N/A,,Overcast,280,2013-11-28 03:35:00
10:55 PM,23.0,13.6,67,30.13,10.0,West,12.7,17.3,N/A,,Overcast,280,2013-11-28 03:55:00
11:15 PM,22.6,16.7,78,30.13,4.0,West,18.4,24.2,N/A,Snow,Light Snow,280,2013-11-28 04:15:00
11:35 PM,22.8,15.6,74,30.14,5.0,West,15.0,23.0,N/A,Snow,Light Snow,280,2013-11-28 04:35:00
11:55 PM,22.6,16.3,77,30.14,3.0,West,17.3,23.0,N/A,Snow,Light Snow,280,2013-11-28 04:55:00